Location: Nitra
(0.0000°N, 18.0833°E)
Time: 21:34:16
(UTC+01:00)

Milstar 3 Cent rocket - Pass Details

Date: 30 November 2023
Orbit: 706 x 5146 km, 28.3° (Epoch: 29 February)

Event Time Altitude Azimuth Distance (km) Brightness Sun altitude
Rises 20:28:49 0° 236° (SW) 8,597 8.3 -39.4°
Reaches altitude 10° 20:35:56 10° 233° (SW) 6,923 7.5 -41.0°
Enters shadow 20:54:19 64° 175° (S) 2,325 4.2 -44.9°
